Location: Unspecified
(0.0000°N, 0.0000°E)
Time: 12:36:36
(UTC+00:00)

Tiros 1 - Pass Details

Date: 25 November 2019
Orbit: 630 x 664 km, 48.4° (Epoch: 11 December)

Event Time Altitude Azimuth Distance (km) Brightness Sun altitude
Rises 07:31:46 0° 189° (S) 2,966 10.7 24.4°
Reaches altitude 10° 07:35:01 10° 166° (SSE) 2,045 10.3 25.2°
Maximum altitude 07:37:45 15° 130° (SE) 1,713 11.0 25.8°
Drops below altitude 10° 07:40:28 10° 95° (E) 2,029 11.2 26.4°
Sets 07:43:40 0° 72° (ENE) 2,927 11.2 27.2°
